[keps] orb10035.amsat

Ray Hoad ray.hoad at mypbmail.com
Thu Feb 4 20:21:26 PST 2010


SB KEPS @ AMSAT  $ORB10035.O
Orbital Elements  10035.OSCAR

HR AMSAT ORBITAL ELEMENTS FOR OSCAR SATELLITES
FROM WA5QGD FORT WORTH,TX February 4, 2010
Send Subscribe/unsubscribe to KEPS at http://www.amsat.org/mailman/listinfo/keps
BID: ORB10035.O
TO ALL RADIO AMATEURS BT

Satellite: AO-07
Catalog number: 07530
Epoch time:      10035.48484518
Element set:     696
Inclination:      101.4106 deg
RA of node:       056.4629 deg
Eccentricity:    0.0011970
Arg of perigee:   173.6850 deg
Mean anomaly:     186.4378 deg
Mean motion:   12.53577696 rev/day
Decay rate:       -2.7e-07 rev/day^2
Epoch rev:           61182
Checksum:              314

Satellite: FO-29
Catalog number: 24278
Epoch time:      10034.62183458
Element set:     237
Inclination:      098.5234 deg
RA of node:       242.1624 deg
Eccentricity:    0.0351441
Arg of perigee:   110.3355 deg
Mean anomaly:     253.5906 deg
Mean motion:   13.52947547 rev/day
Decay rate:        7.0e-08 rev/day^2
Epoch rev:           66504
Checksum:              296

Satellite: SO-33
Catalog number: 25509
Epoch time:      10034.69071766
Element set:    0644
Inclination:      031.4317 deg
RA of node:       183.4301 deg
Eccentricity:    0.0354462
Arg of perigee:   202.7024 deg
Mean anomaly:     155.7566 deg
Mean motion:   14.28285384 rev/day
Decay rate:        8.8e-07 rev/day^2
Epoch rev:           58895
Checksum:              313

Satellite: RS-22
Catalog number: 27939
Epoch time:      10034.92958200
Element set:       1
Inclination:      097.9112 deg
RA of node:       265.9134 deg
Eccentricity:    0.0014786
Arg of perigee:   119.4089 deg
Mean anomaly:     240.8779 deg
Mean motion:   14.63378223 rev/day
Decay rate:       1.07e-06 rev/day^2
Epoch rev:           33946
Checksum:              314

Satellite: VO-52
Catalog number: 28650
Epoch time:      10035.30073699
Element set:     426
Inclination:      097.7112 deg
RA of node:       093.8037 deg
Eccentricity:    0.0026925
Arg of perigee:   353.8835 deg
Mean anomaly:     006.2047 deg
Mean motion:   14.81674816 rev/day
Decay rate:      -1.72e-06 rev/day^2
Epoch rev:           25701
Checksum:              303

Satellite: SO-67
Catalog number: 35870
Epoch time:      10035.94938657
Element set:     416
Inclination:      097.3515 deg
RA of node:       088.2449 deg
Eccentricity:    0.0011708
Arg of perigee:   154.2742 deg
Mean anomaly:     205.7498 deg
Mean motion:   15.22860492 rev/day
Decay rate:       4.91e-06 rev/day^2
Epoch rev:            2133
Checksum:              321

Satellite: HO-68
Catalog number: 36122
Epoch time:      10035.23386919
Element set:     125
Inclination:      100.4889 deg
RA of node:       096.9180 deg
Eccentricity:    0.0007285
Arg of perigee:   280.4438 deg
Mean anomaly:     079.5841 deg
Mean motion:   13.16279712 rev/day
Decay rate:       -4.5e-07 rev/day^2
Epoch rev:             672
Checksum:              309

/EX
SB KEPS @ AMSAT  $ORB10035.D
Orbital Elements  10035.MICROS

HR AMSAT ORBITAL ELEMENTS FOR THE MICROSATS
FROM WA5QGD FORT WORTH,TX February 4, 2010
Send Subscribe/unsubscribe to KEPS at http://www.amsat.org/mailman/listinfo/keps
BID: ORB10035.D
TO ALL RADIO AMATEURS BT

Satellite: UO-11
Catalog number: 14781
Epoch time:      10034.61151884
Element set:    0167
Inclination:      098.0750 deg
RA of node:       085.8208 deg
Eccentricity:    0.0008373
Arg of perigee:   315.5224 deg
Mean anomaly:     044.5314 deg
Mean motion:   14.79764546 rev/day
Decay rate:       -3.6e-07 rev/day^2
Epoch rev:           39205
Checksum:              296

Satellite: AO-16
Catalog number: 20439
Epoch time:      10035.55729522
Element set:     814
Inclination:      098.3144 deg
RA of node:       358.8083 deg
Eccentricity:    0.0010531
Arg of perigee:   196.0332 deg
Mean anomaly:     164.0514 deg
Mean motion:   14.31846659 rev/day
Decay rate:       -1.5e-07 rev/day^2
Epoch rev:            4640
Checksum:              282

Satellite: LO-19
Catalog number: 20442
Epoch time:      10035.78602208
Element set:     725
Inclination:      098.2768 deg
RA of node:       005.3667 deg
Eccentricity:    0.0011659
Arg of perigee:   191.0796 deg
Mean anomaly:     169.0139 deg
Mean motion:   14.32080196 rev/day
Decay rate:        3.8e-07 rev/day^2
Epoch rev:            4660
Checksum:              301

Satellite: AO-27
Catalog number: 22825
Epoch time:      10034.79412730
Element set:    0450
Inclination:      098.4708 deg
RA of node:       346.3064 deg
Eccentricity:    0.0007691
Arg of perigee:   306.0975 deg
Mean anomaly:     053.9484 deg
Mean motion:   14.29285337 rev/day
Decay rate:        5.7e-07 rev/day^2
Epoch rev:           85299
Checksum:              326

Satellite: IO-26
Catalog number: 22826
Epoch time:      10034.81338049
Element set:    0185
Inclination:      098.4631 deg
RA of node:       346.9783 deg
Eccentricity:    0.0008176
Arg of perigee:   301.0325 deg
Mean anomaly:     059.0057 deg
Mean motion:   14.29539049 rev/day
Decay rate:       -2.4e-07 rev/day^2
Epoch rev:           85310
Checksum:              300

Satellite: GO-32
Catalog number: 25397
Epoch time:      10035.50456971
Element set:     104
Inclination:      098.3167 deg
RA of node:       050.2444 deg
Eccentricity:    0.0000481
Arg of perigee:   342.4974 deg
Mean anomaly:     017.6207 deg
Mean motion:   14.23170655 rev/day
Decay rate:       -1.1e-07 rev/day^2
Epoch rev:           60117
Checksum:              267

Satellite: NO-44
Catalog number: 26931
Epoch time:      10034.78858652
Element set:    0378
Inclination:      067.0508 deg
RA of node:       187.6618 deg
Eccentricity:    0.0006714
Arg of perigee:   265.7855 deg
Mean anomaly:     094.2492 deg
Mean motion:   14.29581107 rev/day
Decay rate:       -4.0e-08 rev/day^2
Epoch rev:           43568
Checksum:              334

Satellite: SO-50
Catalog number: 27607
Epoch time:      10034.46624411
Element set:    0095
Inclination:      064.5576 deg
RA of node:       042.6639 deg
Eccentricity:    0.0040295
Arg of perigee:   138.0348 deg
Mean anomaly:     222.3840 deg
Mean motion:   14.71494941 rev/day
Decay rate:       -1.0e-08 rev/day^2
Epoch rev:           38270
Checksum:              286

Satellite: CO-55
Catalog number: 27844
Epoch time:      10034.91640941
Element set:    0772
Inclination:      098.7108 deg
RA of node:       045.7918 deg
Eccentricity:    0.0009375
Arg of perigee:   192.6548 deg
Mean anomaly:     167.4405 deg
Mean motion:   14.20682073 rev/day
Decay rate:        6.2e-07 rev/day^2
Epoch rev:           34216
Checksum:              314

Satellite: CO-57
Catalog number: 27848
Epoch time:      10034.71536247
Element set:    0724
Inclination:      098.7170 deg
RA of node:       044.6690 deg
Eccentricity:    0.0009381
Arg of perigee:   195.3808 deg
Mean anomaly:     164.7078 deg
Mean motion:   14.20477666 rev/day
Decay rate:        1.4e-07 rev/day^2
Epoch rev:           34209
Checksum:              323

Satellite: AO-51
Catalog number: 28375
Epoch time:      10034.93920707
Element set:    0596
Inclination:      098.0552 deg
RA of node:       036.0669 deg
Eccentricity:    0.0083967
Arg of perigee:   141.0297 deg
Mean anomaly:     219.6987 deg
Mean motion:   14.40667598 rev/day
Decay rate:        1.3e-07 rev/day^2
Epoch rev:           29432
Checksum:              339

Satellite: CO-56
Catalog number: 28941
Epoch time:      09297.68475575
Element set:     556
Inclination:      098.0955 deg
RA of node:       138.9518 deg
Eccentricity:    0.0011688
Arg of perigee:   319.8691 deg
Mean anomaly:     040.7485 deg
Mean motion:   16.46998778 rev/day
Decay rate:  1.4491492e-01 rev/day^2
Epoch rev:           20790
Checksum:              407

Satellite: GENESAT1
Catalog number: 29655
Epoch time:      10034.70536516
Element set:    0933
Inclination:      040.0190 deg
RA of node:       165.9000 deg
Eccentricity:    0.0004066
Arg of perigee:   059.1363 deg
Mean anomaly:     300.9856 deg
Mean motion:   15.73399362 rev/day
Decay rate:     2.9560e-04 rev/day^2
Epoch rev:           17884
Checksum:              298

Satellite: CP3
Catalog number: 31129
Epoch time:      10034.82481361
Element set:     497
Inclination:      097.9615 deg
RA of node:       081.4225 deg
Eccentricity:    0.0100874
Arg of perigee:   287.6585 deg
Mean anomaly:     071.3605 deg
Mean motion:   14.52205420 rev/day
Decay rate:        9.7e-07 rev/day^2
Epoch rev:           14850
Checksum:              291

Satellite: CO-65
Catalog number: 32785
Epoch time:      10034.17576994
Element set:    0596
Inclination:      097.9135 deg
RA of node:       100.8559 deg
Eccentricity:    0.0015103
Arg of perigee:   005.2078 deg
Mean anomaly:     354.9293 deg
Mean motion:   14.81576306 rev/day
Decay rate:       -2.8e-07 rev/day^2
Epoch rev:           09564
Checksum:              328

Satellite: KKS-1
Catalog number: 33493
Epoch time:      10035.75723163
Element set:     180
Inclination:      098.0709 deg
RA of node:       154.2598 deg
Eccentricity:    0.0019410
Arg of perigee:   206.6806 deg
Mean anomaly:     153.3426 deg
Mean motion:   14.80838060 rev/day
Decay rate:       3.67e-06 rev/day^2
Epoch rev:            5588
Checksum:              299

Satellite: SOHLA-1
Catalog number: 33496
Epoch time:      10034.83667588
Element set:      16
Inclination:      098.0469 deg
RA of node:       145.7363 deg
Eccentricity:    0.0005519
Arg of perigee:   266.5160 deg
Mean anomaly:     093.5409 deg
Mean motion:   14.69467166 rev/day
Decay rate:       1.61e-06 rev/day^2
Epoch rev:            5529
Checksum:              322

/EX
SB KEPS @ AMSAT  $ORB10035.W
Orbital Elements  10035.WEATHER

HR AMSAT ORBITAL ELEMENTS FOR WEATHER SATELLITES
FROM WA5QGD FORT WORTH,TX February 4, 2010
Send Subscribe/unsubscribe to KEPS at http://www.amsat.org/mailman/listinfo/keps
BID: ORB10035.W
TO ALL RADIO AMATEURS BT

